Find Starlink 37543

NORAD ID: 68911 Int'l Des: 2026-097 Owner: SPXS Country: US Constellation: starlink operational
LEOCIRCULARRETROGRADE

現在のビュー

3D地球を読み込み中...

About Starlink 37543

Starlink 37543 (NORAD 68911) is a starlink constellation satellite (v2 mini) launched Apr 30, 2026 by SPXS of US. It operates in LEO, CIRCULAR, RETROGRADE orbit with a mass of 575.00 kg.

Starlink 37543について

説明を読み込み中...

次回通過

Passes for default location (London). Set your location on the main map for personalized predictions.

高度履歴

Loading altitude history...

軌道要素

1 68911U 26097S 26170.51853650 .00025048 00000-0 77491-3 0 9998
2 68911 97.2862 6.0009 0002909 87.8291 272.3284 15.33470993 7842
Epoch: Jun 19, 2026 • Age: 9 hours

現在のステータス

高度 467.2 km
速度 7.63 km/s
衛星直下点 14.58°N, 127.79°E
打ち上げ日 Apr 30, 2026
運用期間 0.1 years
タイプ internet

技術仕様

分類 Payload
質量 575.00 kg
乾燥質量 530.00 kg
総質量 575.00 kg
長さ 0.30 m
直径 4.10 m
スパン 29.00 m
形状 Box + pan
製造者 SPXS
バスタイプ Starlink V2MO
フェーズステータス In Orbit
所有者/国 SPXS/US

Most Searched